TAT21SB DTTA-HLLT

Flight info

Callsign TAT21SB
Flight time N/A
Altitude 29000
Route GIBLI DCT MON UM738 SFX UG727 JBA UA411 TANLI
Aircraft F28/M-SDFIRWY/H

Departure

Time 2026-05-06 17:40
Airport Tunis Carthage International Airport (DTTA)

Arrival

Time N/A
Airport HLLT
Time Latitude Longitude Altitude Speed Heading
2026-05-06 17:25 36.84213 10.22028 28 ft 0 kts 103°
2026-05-06 17:33 36.84217 10.22003 28 ft 4 kts 103°
2026-05-06 17:33 36.84224 10.21970 28 ft 4 kts 105°
2026-05-06 17:33 36.84231 10.21946 28 ft 2 kts 118°
2026-05-06 17:33 36.84238 10.21935 28 ft 2 kts 152°
2026-05-06 17:34 36.84249 10.21933 28 ft 2 kts 182°
2026-05-06 17:34 36.84258 10.21934 28 ft 0 kts 189°
2026-05-06 17:36 36.84256 10.21933 28 ft 1 kts 189°
2026-05-06 17:36 36.84243 10.21931 28 ft 4 kts 191°
2026-05-06 17:36 36.84205 10.21922 28 ft 7 kts 191°
2026-05-06 17:37 36.84143 10.21905 28 ft 11 kts 192°
2026-05-06 17:37 36.84070 10.21885 28 ft 11 kts 192°
2026-05-06 17:37 36.83996 10.21865 28 ft 11 kts 192°
2026-05-06 17:37 36.83923 10.21856 28 ft 10 kts 159°
2026-05-06 17:38 36.83897 10.21925 28 ft 9 kts 101°
2026-05-06 17:38 36.83885 10.21998 28 ft 8 kts 101°
2026-05-06 17:38 36.83875 10.22067 28 ft 8 kts 100°
2026-05-06 17:38 36.83866 10.22131 28 ft 7 kts 99°
2026-05-06 17:39 36.83863 10.22192 28 ft 7 kts 83°
2026-05-06 17:39 36.83889 10.22269 28 ft 12 kts 63°
2026-05-06 17:39 36.83941 10.22374 29 ft 16 kts 38°
2026-05-06 17:39 36.84175 10.22451 29 ft 67 kts 12°
2026-05-06 17:40 36.84839 10.22629 30 ft 125 kts 11°
2026-05-06 17:40 36.85768 10.22895 356 ft 137 kts 14°
2026-05-06 17:40 36.86762 10.23201 904 ft 153 kts 17°
2026-05-06 17:40 36.87859 10.23569 1431 ft 175 kts 15°
2026-05-06 17:41 36.89053 10.23954 2183 ft 175 kts 17°
2026-05-06 17:41 36.90239 10.24250 3033 ft 180 kts
2026-05-06 17:41 36.91528 10.23729 3346 ft 216 kts 324°
2026-05-06 17:41 36.92391 10.22182 4124 ft 218 kts 294°
2026-05-06 17:42 36.92730 10.20393 5015 ft 216 kts 272°
2026-05-06 17:42 36.92633 10.18410 5432 ft 243 kts 257°
2026-05-06 17:42 36.91958 10.16485 6141 ft 240 kts 224°
2026-05-06 17:42 36.90574 10.15542 6729 ft 227 kts 178°
2026-05-06 17:43 36.89145 10.16168 7112 ft 214 kts 139°
2026-05-06 17:43 36.88363 10.17662 8001 ft 207 kts 114°
2026-05-06 17:43 36.87834 10.19353 8625 ft 211 kts 119°
2026-05-06 17:43 36.87134 10.20978 9052 ft 213 kts 128°
2026-05-06 17:44 36.86270 10.22471 9451 ft 211 kts 133°
2026-05-06 17:44 36.85210 10.23704 9804 ft 209 kts 152°
2026-05-06 17:44 36.83860 10.24384 10168 ft 211 kts 164°
2026-05-06 17:44 36.82387 10.24859 10300 ft 230 kts 168°
2026-05-06 17:45 36.80730 10.25345 10344 ft 258 kts 167°
2026-05-06 17:45 36.78904 10.25989 10427 ft 287 kts 163°
2026-05-06 17:45 36.76986 10.26976 10676 ft 308 kts 158°
2026-05-06 17:45 36.75020 10.28053 11429 ft 308 kts 160°
2026-05-06 17:46 36.72988 10.29014 11942 ft 319 kts 163°
2026-05-06 17:46 36.70853 10.30017 12233 ft 336 kts 162°
2026-05-06 17:46 36.68610 10.31017 12605 ft 349 kts 164°
2026-05-06 17:46 36.66299 10.32110 13001 ft 361 kts 163°
2026-05-06 17:47 36.63914 10.33242 13413 ft 372 kts 163°
2026-05-06 17:47 36.61445 10.34286 13872 ft 377 kts 167°
2026-05-06 17:47 36.58925 10.35224 14336 ft 380 kts 168°
2026-05-06 17:47 36.56394 10.36242 14882 ft 385 kts 164°
2026-05-06 17:48 36.53890 10.37425 15463 ft 386 kts 164°
2026-05-06 17:48 36.51378 10.38627 16054 ft 387 kts 163°
2026-05-06 17:48 36.48867 10.39838 16641 ft 387 kts 163°
2026-05-06 17:48 36.46353 10.41050 17215 ft 387 kts 163°
2026-05-06 17:49 36.43842 10.42260 17800 ft 387 kts 163°
2026-05-06 17:49 36.41328 10.43468 18362 ft 387 kts 164°
2026-05-06 17:49 36.38821 10.44674 18863 ft 386 kts 164°
2026-05-06 17:49 36.36313 10.45876 19367 ft 386 kts 164°
2026-05-06 17:50 36.33808 10.47078 19865 ft 385 kts 164°
2026-05-06 17:50 36.31309 10.48277 20360 ft 385 kts 164°
2026-05-06 17:50 36.28813 10.49471 20854 ft 384 kts 164°
2026-05-06 17:50 36.26310 10.50667 21274 ft 386 kts 164°
2026-05-06 17:51 36.23832 10.51854 21670 ft 388 kts 164°
2026-05-06 17:51 36.21312 10.53058 22082 ft 389 kts 164°
2026-05-06 17:51 36.18785 10.54265 22496 ft 390 kts 165°
2026-05-06 17:51 36.16248 10.55476 22907 ft 391 kts 165°
2026-05-06 17:52 36.13706 10.56689 23321 ft 392 kts 165°
2026-05-06 17:52 36.11160 10.57902 23677 ft 393 kts 165°
2026-05-06 17:52 36.08605 10.59120 23949 ft 395 kts 165°
2026-05-06 17:52 36.06023 10.60348 24148 ft 400 kts 165°
2026-05-06 17:53 36.03407 10.61592 24341 ft 405 kts 165°
2026-05-06 17:53 36.00766 10.62848 24546 ft 409 kts 166°
2026-05-06 17:53 35.98099 10.64116 24755 ft 412 kts 166°
2026-05-06 17:53 35.95410 10.65391 24965 ft 416 kts 166°
2026-05-06 17:54 35.92704 10.66675 25166 ft 419 kts 166°
2026-05-06 17:54 35.89977 10.67970 25381 ft 421 kts 166°
2026-05-06 17:54 35.87235 10.69268 25601 ft 424 kts 167°
2026-05-06 17:54 35.84461 10.70579 25691 ft 430 kts 167°
2026-05-06 17:55 35.81651 10.71910 25780 ft 435 kts 167°
2026-05-06 17:55 35.78810 10.73255 25879 ft 440 kts 167°
2026-05-06 17:55 35.75940 10.74611 25997 ft 444 kts 167°
2026-05-06 17:55 35.72992 10.75569 26087 ft 434 kts 180°
2026-05-06 17:56 35.69992 10.76020 26208 ft 434 kts 182°
2026-05-06 17:56 35.67015 10.76363 26340 ft 436 kts 184°
2026-05-06 17:56 35.63990 10.76561 26474 ft 435 kts 187°
2026-05-06 17:56 35.60967 10.76582 26611 ft 435 kts 189°
2026-05-06 17:57 35.57932 10.76512 26751 ft 435 kts 191°
2026-05-06 17:57 35.54909 10.76321 26888 ft 435 kts 192°
2026-05-06 17:57 35.51883 10.76085 27034 ft 436 kts 193°
2026-05-06 17:57 35.48854 10.75839 27233 ft 436 kts 193°
2026-05-06 17:58 35.45826 10.75579 27429 ft 435 kts 194°
2026-05-06 17:58 35.42808 10.75303 27615 ft 435 kts 194°
2026-05-06 17:58 35.39784 10.75025 27797 ft 435 kts 194°
2026-05-06 17:58 35.36761 10.74752 27985 ft 435 kts 194°
2026-05-06 17:59 35.33740 10.74488 28165 ft 436 kts 194°
2026-05-06 17:59 35.30715 10.74234 28356 ft 436 kts 194°
2026-05-06 17:59 35.27691 10.73992 28544 ft 436 kts 194°
2026-05-06 17:59 35.24661 10.73761 28734 ft 436 kts 194°
2026-05-06 18:00 35.21633 10.73541 28899 ft 436 kts 194°
2026-05-06 18:00 35.18603 10.73337 29082 ft 437 kts 194°
2026-05-06 18:00 35.15606 10.73167 29209 ft 438 kts 194°
2026-05-06 18:00 35.12552 10.72981 29218 ft 441 kts 194°
2026-05-06 18:01 35.06456 10.72599 29032 ft 436 kts 194°
2026-05-06 18:01 35.03433 10.72409 28871 ft 434 kts 194°
2026-05-06 18:01 35.00423 10.72216 28749 ft 432 kts 194°
2026-05-06 18:02 34.94409 10.71803 28746 ft 436 kts 194°
2026-05-06 18:02 34.88332 10.71248 28751 ft 435 kts 195°
2026-05-06 18:03 34.82350 10.70633 28738 ft 429 kts 195°
2026-05-06 18:03 34.76429 10.70181 28736 ft 423 kts 194°
2026-05-06 18:04 34.70551 10.69842 28739 ft 424 kts 192°
2026-05-06 18:04 34.64635 10.69801 28741 ft 425 kts 191°
2026-05-06 18:05 34.58728 10.69749 28740 ft 425 kts 190°
2026-05-06 18:05 34.52767 10.70254 28735 ft 430 kts 185°
2026-05-06 18:06 34.46799 10.70896 28726 ft 430 kts 185°
2026-05-06 18:06 34.40839 10.71535 28717 ft 430 kts 185°
2026-05-06 18:07 34.34883 10.72171 28703 ft 429 kts 185°
2026-05-06 18:07 34.28933 10.72805 28701 ft 429 kts 185°
2026-05-06 18:08 34.22988 10.73435 28691 ft 429 kts 185°
2026-05-06 18:08 34.17052 10.74065 28677 ft 428 kts 185°
2026-05-06 18:09 34.11123 10.74692 28667 ft 427 kts 185°
2026-05-06 18:09 34.05199 10.75319 28650 ft 427 kts 185°
2026-05-06 18:10 33.99284 10.75944 28644 ft 426 kts 185°
2026-05-06 18:10 33.93412 10.76561 28634 ft 426 kts 185°
2026-05-06 18:11 33.88464 10.77105 28630 ft 429 kts 182°
2026-05-06 18:11 33.84626 10.78724 28633 ft 459 kts 158°
2026-05-06 18:11 33.82089 10.81147 28639 ft 476 kts 140°
2026-05-06 18:12 33.80115 10.84406 28648 ft 489 kts 122°
2026-05-06 18:12 33.78842 10.88216 28658 ft 495 kts 110°
2026-05-06 18:12 33.76974 10.96202 28670 ft 497 kts 108°
2026-05-06 18:13 33.75821 11.00102 28659 ft 493 kts 120°
2026-05-06 18:13 33.74054 11.03595 28663 ft 487 kts 129°
2026-05-06 18:13 33.70374 11.10464 28650 ft 490 kts 127°
2026-05-06 18:14 33.66753 11.17406 28639 ft 491 kts 127°
2026-05-06 18:14 33.63127 11.24352 28633 ft 491 kts 127°
2026-05-06 18:15 33.59496 11.31296 28628 ft 492 kts 127°
2026-05-06 18:15 33.55860 11.38247 28626 ft 492 kts 127°
2026-05-06 18:16 33.52245 11.45147 28627 ft 492 kts 127°
2026-05-06 18:16 33.48627 11.52110 28628 ft 492 kts 126°
2026-05-06 18:17 33.45075 11.59129 28626 ft 494 kts 123°
2026-05-06 18:17 33.41875 11.66446 28513 ft 498 kts 120°
2026-05-06 18:18 33.39280 11.72595 28310 ft 498 kts 120°
2026-05-06 18:18 33.37574 11.76188 28004 ft 497 kts 127°
2026-05-06 18:18 33.35496 11.79465 27575 ft 493 kts 133°
2026-05-06 18:19 33.33389 11.82703 27174 ft 492 kts 134°
2026-05-06 18:19 33.31245 11.85881 26790 ft 491 kts 133°
2026-05-06 18:19 33.29103 11.89061 26251 ft 492 kts 134°
2026-05-06 18:19 33.26959 11.92244 25696 ft 492 kts 133°
2026-05-06 18:20 33.24813 11.95426 25162 ft 492 kts 133°
2026-05-06 18:20 33.22668 11.98603 24640 ft 491 kts 133°
2026-05-06 18:20 33.20529 12.01772 24133 ft 489 kts 133°
2026-05-06 18:20 33.18400 12.04924 23642 ft 486 kts 133°
2026-05-06 18:21 33.16283 12.08055 23147 ft 484 kts 133°
2026-05-06 18:21 33.14173 12.11177 22579 ft 482 kts 133°
2026-05-06 18:21 33.12074 12.14281 22024 ft 480 kts 133°
2026-05-06 18:21 33.09982 12.17371 21490 ft 478 kts 133°
2026-05-06 18:22 33.07900 12.20446 20972 ft 475 kts 133°
2026-05-06 18:22 33.05840 12.23486 20469 ft 468 kts 133°
2026-05-06 18:22 33.03829 12.26456 19974 ft 451 kts 133°
2026-05-06 18:22 33.01889 12.29314 19485 ft 435 kts 134°
2026-05-06 18:23 33.00016 12.32075 18990 ft 419 kts 134°
2026-05-06 18:23 32.98229 12.34710 18469 ft 401 kts 134°
2026-05-06 18:23 32.96508 12.37243 17938 ft 385 kts 135°
2026-05-06 18:23 32.94855 12.39674 17334 ft 370 kts 135°
2026-05-06 18:24 32.93271 12.42005 16755 ft 356 kts 135°
2026-05-06 18:24 32.91736 12.44261 16178 ft 346 kts 135°
2026-05-06 18:24 32.90233 12.46470 15630 ft 341 kts 135°
2026-05-06 18:24 32.88748 12.48652 15092 ft 337 kts 135°
2026-05-06 18:25 32.87284 12.50806 14574 ft 333 kts 135°
2026-05-06 18:25 32.85822 12.52951 14068 ft 335 kts 135°
2026-05-06 18:25 32.84357 12.55104 13583 ft 336 kts 135°
2026-05-06 18:25 32.82905 12.57242 13060 ft 326 kts 135°
2026-05-06 18:26 32.81502 12.59300 12521 ft 316 kts 135°
2026-05-06 18:26 32.80136 12.61302 11997 ft 309 kts 135°
2026-05-06 18:26 32.78875 12.63354 11470 ft 308 kts 127°
2026-05-06 18:26 32.77813 12.65509 10980 ft 304 kts 126°
2026-05-06 18:27 32.76766 12.67668 10486 ft 300 kts 127°
2026-05-06 18:27 32.75721 12.69786 10008 ft 294 kts 127°
2026-05-06 18:27 32.74690 12.71862 9533 ft 290 kts 127°
2026-05-06 18:27 32.73671 12.73908 9014 ft 286 kts 127°
2026-05-06 18:28 32.72663 12.75928 8510 ft 283 kts 127°
2026-05-06 18:28 32.71664 12.77925 8006 ft 280 kts 127°
2026-05-06 18:28 32.70664 12.79892 7531 ft 275 kts 128°
2026-05-06 18:28 32.69702 12.81783 7062 ft 261 kts 128°
2026-05-06 18:29 32.68800 12.83592 6582 ft 249 kts 128°
2026-05-06 18:29 32.68018 12.85391 6102 ft 239 kts 121°
2026-05-06 18:29 32.67474 12.87137 5564 ft 209 kts 116°
2026-05-06 18:29 32.67118 12.88660 5010 ft 177 kts 115°
2026-05-06 18:30 32.66865 12.89992 4467 ft 156 kts 113°
2026-05-06 18:30 32.66684 12.91218 3896 ft 146 kts 111°
2026-05-06 18:30 32.66546 12.92375 3365 ft 139 kts 110°
2026-05-06 18:30 32.66463 12.93483 3104 ft 126 kts 107°
2026-05-06 18:31 32.66440 12.94483 2818 ft 122 kts 108°
2026-05-06 18:31 32.66415 12.95521 2559 ft 126 kts 108°
2026-05-06 18:31 32.66402 12.96544 2308 ft 122 kts 108°
2026-05-06 18:31 32.66394 12.97524 2029 ft 115 kts 108°
2026-05-06 18:32 32.66377 12.98459 1755 ft 112 kts 108°
2026-05-06 18:32 32.66350 12.99412 1551 ft 122 kts 106°
2026-05-06 18:32 32.66332 13.00431 1433 ft 124 kts 103°
2026-05-06 18:32 32.66324 13.01449 1307 ft 123 kts 101°
2026-05-06 18:33 32.66325 13.02463 1242 ft 120 kts 102°
2026-05-06 18:33 32.66323 13.03433 1243 ft 121 kts 104°
2026-05-06 18:33 32.66303 13.04417 1459 ft 109 kts 103°
2026-05-06 18:33 32.66290 13.05334 1451 ft 116 kts 104°
2026-05-06 18:34 32.66244 13.06281 1377 ft 115 kts 106°
2026-05-06 18:34 32.66203 13.07196 1195 ft 110 kts 102°
2026-05-06 18:34 32.66236 13.08149 1080 ft 120 kts 98°
2026-05-06 18:34 32.66238 13.09165 894 ft 123 kts 99°
2026-05-06 18:35 32.66273 13.10124 745 ft 111 kts 96°
2026-05-06 18:35 32.66278 13.11045 595 ft 115 kts 93°
2026-05-06 18:35 32.66309 13.12002 439 ft 116 kts 95°
2026-05-06 18:35 32.66317 13.12929 330 ft 105 kts 95°
2026-05-06 18:36 32.66319 13.13670 281 ft 70 kts 92°
2026-05-06 18:36 32.66322 13.14073 282 ft 36 kts 91°
2026-05-06 18:36 32.66328 13.14332 280 ft 28 kts 88°
2026-05-06 18:36 32.66348 13.14539 280 ft 23 kts 82°
2026-05-06 18:37 32.66391 13.14711 280 ft 20 kts 64°
2026-05-06 18:37 32.66455 13.14845 280 ft 17 kts 58°
2026-05-06 18:37 32.66540 13.14902 280 ft 12 kts 349°
2026-05-06 18:37 32.66581 13.14847 280 ft 9 kts 291°
2026-05-06 18:38 32.66585 13.14773 280 ft 9 kts 271°
2026-05-06 18:38 32.66608 13.14706 280 ft 9 kts 301°
2026-05-06 18:38 32.66624 13.14674 280 ft 0 kts 301°